User: anonymous   Login
Location: Iesi
(43.5167°N, 13.2333°E)
Time: 18:06:21
(UTC+00:00)
Language:

Cosmos 614 Rocket - Orbit

View from above orbital plane
View from above orbital plane
View from above satellite
View from above satellite

Ground track
Ground track

The orbit data is extracted from the following two-line orbital elements,

1  6966U 73098B   20298.07001024 -.00000049  00000-0 -67535-5 0  9995
2  6966  74.0527 110.0471 0020700 138.7710 221.5015 14.43051893462213
Epoch (UTC): 24 October 2020 01:40:48
Eccentricity: 0.0020700
inclination: 74.0527°
perigee height: 733 km
apogee height: 763 km
right ascension of ascending node: 110.0471°
argument of perigee: 138.7710°
revolutions per day: 14.43051893
mean anomaly at epoch: 221.5015°
orbit number at epoch: 46221

The dashed part of the orbit path shows where the satellite is in the earth's shadow,  

DLR